FW2982 Oakton VA US current weather conditions

sailwx.info

Wind from 293 at 2 knots gusting 8

Air temperature 6.1° C
Dewpoint -1.5° C

Last reported at 2020-Jan-28 22:07 UTC.
Time now 2020-Jan-28 23:11 UTC

Location: N 38°54' W 077°19'.
View on Google Maps.

See reports from other nearby stations

  
Tides and Currents Weather Stations Pressure Air Temp Water Temp Dewpoint Dewpoint Depression Visibility Wind Speed Wind Dir Waves Ship Positions
date/time (UTC)wind fromknots sea level pressurealtimeterstation pressurevisibilityair tempwater tempwave heightnotes
2020-Jan-28 22:07 293 2 gusting 8 6.1
2020-Jan-28 22:02 290 4 gusting 13 6.1
2020-Jan-28 21:57 320 5 gusting 13 6.1
2020-Jan-28 21:52 314 2 gusting 10 6.1
2020-Jan-28 21:47 320 5 gusting 10 6.1
2020-Jan-28 21:42 6.1
2020-Jan-28 21:37 303 3 gusting 8 6.7
2020-Jan-28 21:32 266 2 gusting 10 6.7
2020-Jan-28 21:27 292 4 gusting 8 6.7
2020-Jan-28 21:22 341 4 gusting 10 6.7
2020-Jan-28 21:17 336 2 gusting 11 6.7
2020-Jan-28 21:12 302 2 gusting 12 6.7
2020-Jan-28 21:07 023 3 gusting 12 6.7
2020-Jan-28 21:02 300 4 gusting 9 6.7
2020-Jan-28 20:57 343 2 gusting 7 6.7
2020-Jan-28 20:52 313 2 gusting 9 6.7
2020-Jan-28 20:47 006 3 gusting 9 6.7
2020-Jan-28 20:42 024 2 gusting 8 7.2
2020-Jan-28 20:37 317 1 gusting 8 7.2
2020-Jan-28 20:32 6.7
2020-Jan-28 20:27 326 3 gusting 7 6.7
2020-Jan-28 20:22 266 1 gusting 7 6.7
2020-Jan-28 20:17 006 2 gusting 12 6.7
2020-Jan-28 20:12 290 3 gusting 6 6.7
2020-Jan-28 20:07 329 0 gusting 8 6.7
2020-Jan-28 20:02 303 3 gusting 8 6.7
2020-Jan-28 19:57 240 1 gusting 9 6.7
2020-Jan-28 19:52 348 1 gusting 9 6.7
2020-Jan-28 19:47 316 3 gusting 7 6.7
2020-Jan-28 19:42 336 1 gusting 5 6.7
2020-Jan-28 19:37 176 1 gusting 10 7.2
2020-Jan-28 19:32 048 2 gusting 10 7.2
2020-Jan-28 19:27 285 3 gusting 11 7.2
2020-Jan-28 19:22 347 4 gusting 11 7.2
2020-Jan-28 19:16 334 4 gusting 8 7.2
2020-Jan-28 19:11 337 3 gusting 7 7.2
2020-Jan-28 19:06 254 3 gusting 8 7.2
2020-Jan-28 19:01 286 2 gusting 8 7.2
2020-Jan-28 18:56 279 3 gusting 7 7.2
2020-Jan-28 18:51 035 3 gusting 11 7.2
2020-Jan-28 18:46 336 4 gusting 11 7.2
2020-Jan-28 18:41 271 2 gusting 9 6.7
2020-Jan-28 18:36 314 4 gusting 9 6.7
2020-Jan-28 18:31 326 1 gusting 7 6.7
2020-Jan-28 18:26 6.7
2020-Jan-28 18:21 337 2 gusting 8 6.7
2020-Jan-28 18:16 338 2 gusting 10 6.7
2020-Jan-28 18:11 334 3 gusting 13 6.7
2020-Jan-28 18:06 313 5 gusting 10 6.7
2020-Jan-28 18:01 306 2 gusting 9 6.7
2020-Jan-28 17:56 336 1 gusting 9 6.7
2020-Jan-28 17:51 6.7
2020-Jan-28 17:46 285 1 gusting 4 6.7
2020-Jan-28 17:41 337 1 gusting 8 6.1
2020-Jan-28 17:36 307 3 gusting 10 6.1
2020-Jan-28 17:31 320 3 gusting 10 6.7
2020-Jan-28 17:26 353 3 gusting 9 6.7
2020-Jan-28 17:21 357 1 gusting 8 6.7
2020-Jan-28 17:16 354 1 gusting 10 6.7
2020-Jan-28 17:11 279 1 gusting 10 6.7
2020-Jan-28 17:06 320 2 gusting 7 6.7
2020-Jan-28 17:01 338 3 gusting 11 6.7
2020-Jan-28 16:56 351 4 gusting 11 6.7
2020-Jan-28 16:51 293 2 gusting 10 7.2
2020-Jan-28 16:46 245 3 gusting 9 7.2
2020-Jan-28 16:41 340 2 gusting 10 7.2
2020-Jan-28 16:36 353 4 gusting 10 7.2
2020-Jan-28 16:31 054 4 gusting 9 7.8
2020-Jan-28 16:26 004 2 gusting 14 8.3
2020-Jan-28 16:21 300 4 gusting 10 8.3
2020-Jan-28 16:16 248 4 gusting 9 8.9
2020-Jan-28 16:11 330 3 gusting 9 8.3
2020-Jan-28 16:06 313 4 gusting 7 8.3
2020-Jan-28 16:01 300 2 gusting 13 7.2
2020-Jan-28 15:56 341 5 gusting 13 6.7
2020-Jan-28 15:51 298 5 gusting 13 6.7
2020-Jan-28 15:46 7.8
2020-Jan-28 15:41 028 3 gusting 7 7.2
2020-Jan-28 15:36 006 3 gusting 12 7.2
2020-Jan-28 15:31 251 3 gusting 12 7.2
2020-Jan-28 15:26 6.7
2020-Jan-28 15:21 337 3 gusting 8 7.2
2020-Jan-28 15:16 030 2 gusting 11 7.2
2020-Jan-28 15:11 336 4 gusting 11 7.8
2020-Jan-28 15:06 309 1 gusting 13 6.7
2020-Jan-28 15:01 331 5 gusting 13 7.2
2020-Jan-28 14:56 288 3 gusting 9 7.2
2020-Jan-28 14:51 337 3 gusting 7 6.7
2020-Jan-28 14:46 330 4 gusting 9 6.7
2020-Jan-28 14:41 274 3 gusting 9 6.7
2020-Jan-28 14:36 244 3 gusting 7 6.7
2020-Jan-28 14:31 324 2 gusting 9 7.2
2020-Jan-28 14:26 327 3 gusting 13 7.2
2020-Jan-28 14:21 293 6 gusting 9 6.7
2020-Jan-28 14:16 298 3 gusting 9 6.7
2020-Jan-28 14:11 013 4 gusting 9 5.6
2020-Jan-28 14:06 355 3 gusting 9 5.6
2020-Jan-28 14:01 350 3 gusting 9 5.6
2020-Jan-28 13:56 5.6
2020-Jan-28 13:51 302 3 gusting 12 5.0
2020-Jan-28 13:46 358 2 gusting 7 5.0
2020-Jan-28 13:41 285 2 gusting 8 5.0
2020-Jan-28 13:36 5.0
2020-Jan-28 13:31 4.4
2020-Jan-28 13:26 268 2 gusting 8 4.4
2020-Jan-28 13:21 290 1 gusting 7 4.4
2020-Jan-28 13:16 338 3 gusting 7 4.4
2020-Jan-28 13:11 3.9
2020-Jan-28 13:06 245 3.9
2020-Jan-28 13:01 272 3 gusting 6 3.9
2020-Jan-28 12:56 285 0 gusting 6 3.3
2020-Jan-28 12:51 3.3
2020-Jan-28 12:46 337 0 gusting 6 3.3
2020-Jan-28 12:41 329 1 gusting 4 3.3
2020-Jan-28 12:36 305 1 gusting 7 3.3
2020-Jan-28 12:31 338 1 gusting 7 3.3
2020-Jan-28 12:26 292 2 gusting 8 3.3
2020-Jan-28 12:21 326 1 gusting 8 3.3
2020-Jan-28 12:16 326 1 gusting 8 3.3
2020-Jan-28 12:11 351 4 gusting 7 3.3
2020-Jan-28 12:06 343 1 gusting 6 3.3
2020-Jan-28 12:01 272 2 gusting 8 3.3
2020-Jan-28 11:56 274 2 gusting 8 3.3
2020-Jan-28 11:51 329 0 gusting 5 3.3
2020-Jan-28 11:46 347 1 gusting 6 3.3
2020-Jan-28 11:41 330 2 gusting 6 3.3
2020-Jan-28 11:36 330 3 gusting 7 3.3
2020-Jan-28 11:31 314 1 gusting 6 3.3
2020-Jan-28 11:26 323 1 gusting 5 3.3
2020-Jan-28 11:21 3.3
2020-Jan-28 11:16 347 2 gusting 6 3.3
2020-Jan-28 11:11 341 1 gusting 7 3.3
2020-Jan-28 11:06 312 1 gusting 7 3.3
2020-Jan-28 11:01 289 1 gusting 6 3.3
2020-Jan-28 10:56 330 2 gusting 6 3.3
2020-Jan-28 10:51 314 2 gusting 5 3.3
2020-Jan-28 10:46 299 0 gusting 3 3.9
2020-Jan-28 10:41 309 3.9
2020-Jan-28 10:36 300 1 gusting 5 3.3
2020-Jan-28 10:31 283 1 gusting 5 3.3
2020-Jan-28 10:26 326 1 gusting 4 3.3
2020-Jan-28 10:21 317 1 gusting 4 3.3
2020-Jan-28 10:16 310 1 gusting 5 3.9
2020-Jan-28 10:11 320 1 gusting 6 3.9
2020-Jan-28 10:06 317 1 gusting 7 3.9
2020-Jan-28 10:01 010 1 gusting 7 3.9
2020-Jan-28 09:56 340 2 gusting 8 3.3
2020-Jan-28 09:51 316 2 gusting 8 3.9
2020-Jan-28 09:46 336 1 gusting 6 3.3
2020-Jan-28 09:41 355 2 gusting 9 3.3
2020-Jan-28 09:36 255 4 gusting 9 3.3
2020-Jan-28 09:31 007 3 gusting 5 3.3
2020-Jan-28 09:26 309 1 gusting 5 3.9
2020-Jan-28 09:21 333 2 gusting 5 3.3
2020-Jan-28 09:16 227 1 gusting 8 3.9
2020-Jan-28 09:11 312 2 gusting 9 3.9
2020-Jan-28 09:06 024 4 gusting 9 3.9
2020-Jan-28 09:01 338 1 gusting 5 3.9
2020-Jan-28 08:56 321 2 gusting 3 3.9
2020-Jan-28 08:51 348 0 gusting 6 3.9
2020-Jan-28 08:46 316 3 gusting 6 3.9
2020-Jan-28 08:41 343 0 gusting 4 3.9
2020-Jan-28 08:36 317 1 gusting 6 3.9
2020-Jan-28 08:31 290 2 gusting 7 3.9
2020-Jan-28 08:26 333 1 gusting 7 3.9
2020-Jan-28 08:21 307 2 gusting 5 3.9
2020-Jan-28 08:16 329 1 gusting 5 3.9
2020-Jan-28 08:11 331 2 gusting 4 3.9
2020-Jan-28 08:06 327 1 gusting 4 3.9
2020-Jan-28 08:01 331 1 gusting 6 3.9
2020-Jan-28 07:56 254 1 gusting 6 3.9
2020-Jan-28 07:51 314 0 gusting 5 3.9
2020-Jan-28 07:46 307 2 gusting 7 3.9
2020-Jan-28 07:41 321 2 gusting 7 3.9
2020-Jan-28 07:36 312 1 gusting 5 3.9
2020-Jan-28 07:31 320 1 gusting 6 3.9
2020-Jan-28 07:26 020 1 gusting 4 3.9
2020-Jan-28 07:21 313 0 gusting 5 3.9
2020-Jan-28 07:16 326 1 gusting 5 3.9
2020-Jan-28 07:11 3.9
2020-Jan-28 07:06 020 2 gusting 4 3.9
2020-Jan-28 07:01 319 1 gusting 4 3.9
2020-Jan-28 06:56 293 0 gusting 7 3.9
2020-Jan-28 06:51 296 3 gusting 7 3.9
2020-Jan-28 06:46 321 2 gusting 8 3.9
2020-Jan-28 06:41 327 3 gusting 8 3.9
2020-Jan-28 06:36 265 2 gusting 5 3.9
2020-Jan-28 06:31 024 1 gusting 6 3.9
2020-Jan-28 06:26 307 1 gusting 4 3.9
2020-Jan-28 06:21 303 1 gusting 4 3.9
2020-Jan-28 06:16 354 1 gusting 5 3.9
2020-Jan-28 06:11 300 2 gusting 7 3.9
2020-Jan-28 06:06 326 2 gusting 8 3.9
2020-Jan-28 06:01 354 3 gusting 8 3.9
2020-Jan-28 05:56 316 1 gusting 4 3.9
2020-Jan-28 05:51 324 1 gusting 5 3.9
2020-Jan-28 05:46 313 1 gusting 5 3.9
2020-Jan-28 05:41 333 1 gusting 8 3.9
2020-Jan-28 05:36 3.9
2020-Jan-28 05:31 262 1 gusting 2 3.9
2020-Jan-28 05:26 320 1 gusting 5 3.9
2020-Jan-28 05:21 306 2 gusting 5 3.9
2020-Jan-28 05:16 299 1 gusting 4 4.4
2020-Jan-28 05:11 329 4.4
2020-Jan-28 05:06 312 0 gusting 4 4.4
2020-Jan-28 05:01 331 1 gusting 6 4.4
2020-Jan-28 04:56 300 2 gusting 7 4.4
2020-Jan-28 04:51 314 2 gusting 7 4.4
2020-Jan-28 04:46 340 3 gusting 7 4.4
2020-Jan-28 04:41 344 1 gusting 5 4.4
2020-Jan-28 04:36 334 2 gusting 7 4.4
2020-Jan-28 04:31 348 0 gusting 3 4.4
2020-Jan-28 04:26 295 1 gusting 4 4.4
2020-Jan-28 04:21 321 1 gusting 6 4.4
2020-Jan-28 04:16 337 2 gusting 6 4.4
2020-Jan-28 04:11 347 1 gusting 5 4.4
2020-Jan-28 04:06 285 1 gusting 3 4.4
2020-Jan-28 04:01 298 1 gusting 3 4.4
2020-Jan-28 03:56 298 1 gusting 4 4.4
2020-Jan-28 03:51 323 1 gusting 4 4.4
2020-Jan-28 03:46 312 1 gusting 3 4.4
2020-Jan-28 03:41 302 0 gusting 2 4.4
2020-Jan-28 03:36 333 0 gusting 5 4.4
2020-Jan-28 03:31 350 1 gusting 5 4.4
2020-Jan-28 03:26 288 0 gusting 1 4.4
2020-Jan-28 03:21 288 0 gusting 2 4.4
2020-Jan-28 03:16 243 4.4
2020-Jan-28 03:11 243 4.4
2020-Jan-28 03:06 237 4.4
2020-Jan-28 03:01 235 0 gusting 0 4.4
2020-Jan-28 02:56 235 4.4
2020-Jan-28 02:51 235 0 gusting 2 5.0
2020-Jan-28 02:46 276 0 gusting 4 4.4
2020-Jan-28 02:41 286 1 gusting 4 4.4
2020-Jan-28 02:36 313 0 gusting 4 4.4
2020-Jan-28 02:31 329 2 gusting 4 5.0
2020-Jan-28 02:26 279 1 gusting 6 4.4
2020-Jan-28 02:21 330 2 gusting 6 5.0
2020-Jan-28 02:16 250 1 gusting 6 5.0
2020-Jan-28 02:11 305 1 gusting 6 5.0
2020-Jan-28 02:06 288 1 gusting 6 5.0
2020-Jan-28 02:01 238 1 gusting 4 5.0
2020-Jan-28 01:56 330 0 gusting 5 5.0
2020-Jan-28 01:51 354 1 gusting 7 5.0
2020-Jan-28 01:46 290 2 gusting 6 5.0
2020-Jan-28 01:41 320 1 gusting 4 5.0
2020-Jan-28 01:36 330 1 gusting 4 5.0
2020-Jan-28 01:31 338 1 gusting 4 5.0
2020-Jan-28 01:26 310 0 gusting 8 5.0
2020-Jan-28 01:21 313 3 gusting 8 5.0
2020-Jan-28 01:16 340 2 gusting 5 5.0
2020-Jan-28 01:11 295 1 gusting 6 4.4
2020-Jan-28 01:06 341 2 gusting 4 4.4
2020-Jan-28 01:01 350 1 gusting 7 4.4
2020-Jan-28 00:56 313 3 gusting 9 4.4
2020-Jan-28 00:51 303 4 gusting 9 4.4
2020-Jan-28 00:46 302 3 gusting 6 5.0
2020-Jan-28 00:41 320 1 gusting 4 4.4
2020-Jan-28 00:36 032 2 gusting 7 4.4
2020-Jan-28 00:31 307 2 gusting 6 5.0
2020-Jan-28 00:26 334 2 gusting 6 5.0
2020-Jan-28 00:21 303 2 gusting 7 5.0
2020-Jan-28 00:16 292 3 gusting 8 5.0
2020-Jan-28 00:11 276 3 gusting 11 5.0
2020-Jan-28 00:06 306 5 gusting 11 5.0
2020-Jan-28 00:01 330 2 gusting 7 5.0
2020-Jan-27 23:56 269 1 gusting 6 5.6
2020-Jan-27 23:51 008 1 gusting 4 5.6
2020-Jan-27 23:46 320 2 gusting 6 5.6
2020-Jan-27 23:41 320 3 gusting 6 5.6
2020-Jan-27 23:36 279 2 gusting 8 5.6
2020-Jan-27 23:31 265 4 gusting 11 5.6
2020-Jan-27 23:26 324 2 gusting 11 5.6
2020-Jan-27 23:21 323 1 gusting 5 5.6
2020-Jan-27 23:16 286 1 gusting 10 6.1
2020-Jan-27 23:11 350 4 gusting 10 6.1
2020-Jan-27 23:06 326 3 gusting 7 6.1
2020-Jan-27 23:01 268 2 gusting 7 6.1
2020-Jan-27 22:56 336 2 gusting 5 6.1
2020-Jan-27 22:51 309 1 gusting 11 6.1
2020-Jan-27 22:46 290 2 gusting 11 6.1
2020-Jan-27 22:41 333 3 gusting 9 6.1
2020-Jan-27 22:36 320 5 gusting 9 6.1
2020-Jan-27 22:31 354 2 gusting 7 6.7
2020-Jan-27 22:26 017 0 gusting 5 6.7
2020-Jan-27 22:21 008 2 gusting 7 6.7
2020-Jan-27 22:16 357 3 gusting 9 6.7
2020-Jan-27 22:11 283 3 gusting 9 6.7
2020-Jan-27 22:06 293 3 gusting 8 6.7
2020-Jan-27 22:01 323 2 gusting 8 6.7
2020-Jan-27 21:56 347 2 gusting 8 7.2
2020-Jan-27 21:51 357 3 gusting 8 7.2
2020-Jan-27 21:46 7.2
2020-Jan-27 21:41 333 1 gusting 7 7.2
2020-Jan-27 21:36 331 3 gusting 12 7.2
2020-Jan-27 21:31 323 3 gusting 12 7.2
2020-Jan-27 21:26 293 3 gusting 10 7.2
2020-Jan-27 21:20 353 3 gusting 9 7.2
2020-Jan-27 21:16 285 4 gusting 10 7.2
2020-Jan-27 21:11 285 5 gusting 8 7.8
2020-Jan-27 21:05 337 2 gusting 8 7.8
2020-Jan-27 21:00 299 3 gusting 8 7.8
2020-Jan-27 20:55 344 2 gusting 6 7.8
2020-Jan-27 20:50 290 2 gusting 6 8.3
2020-Jan-27 20:45 238 1 gusting 7 8.3
2020-Jan-27 20:40 303 3 gusting 7 8.3
2020-Jan-27 20:35 295 2 gusting 10 8.3
2020-Jan-27 20:30 300 1 gusting 10 8.3
2020-Jan-27 20:25 283 2 gusting 12 8.3
2020-Jan-27 20:20 306 2 gusting 12 8.3
2020-Jan-27 20:15 343 2 gusting 10 8.3
2020-Jan-27 20:10 298 5 gusting 9 8.3
2020-Jan-27 20:05 314 3 gusting 9 8.3
2020-Jan-27 20:00 221 4 gusting 11 8.9
2020-Jan-27 19:55 268 4 gusting 11 8.9
2020-Jan-27 19:50 334 3 gusting 10 8.9
2020-Jan-27 19:45 292 3 gusting 10 8.9
2020-Jan-27 19:40 337 2 gusting 10 9.4
2020-Jan-27 19:35 350 1 gusting 8 9.4
2020-Jan-27 19:30 038 3 gusting 12 9.4
2020-Jan-27 19:25 299 3 gusting 12 9.4
2020-Jan-27 19:20 8.9
2020-Jan-27 19:15 305 1 gusting 9 8.9
2020-Jan-27 19:10 285 3 gusting 8 8.9
2020-Jan-27 19:05 295 3 gusting 7 8.9
2020-Jan-27 19:00 269 4 gusting 7 8.9
2020-Jan-27 18:55 243 3 gusting 7 8.9
2020-Jan-27 18:50 003 4 gusting 8 8.9
2020-Jan-27 18:45 324 3 gusting 8 8.3
2020-Jan-27 18:40 259 3 gusting 8 8.9
2020-Jan-27 18:35 336 2 gusting 4 8.9
2020-Jan-27 18:30 9.4
2020-Jan-27 18:25 312 1 gusting 8 9.4
2020-Jan-27 18:20 031 2 gusting 5 10.0
2020-Jan-27 18:15 327 0 gusting 4 9.4
2020-Jan-27 18:10 347 3 gusting 6 8.9
2020-Jan-27 18:05 8.9
2020-Jan-27 18:00 326 3 gusting 8 8.9
2020-Jan-27 17:55 355 0 gusting 8 8.9
2020-Jan-27 17:50 334 2 gusting 8 8.9
2020-Jan-27 17:45 309 2 gusting 6 8.9
2020-Jan-27 17:40 323 1 gusting 8 8.9
2020-Jan-27 17:35 295 3 gusting 8 8.9
2020-Jan-27 17:30 319 3 gusting 10 8.9
2020-Jan-27 17:25 8.9
2020-Jan-27 17:20 323 3 gusting 12 9.4
2020-Jan-27 17:15 307 5 gusting 12 9.4
2020-Jan-27 17:10 295 1 gusting 8 9.4
2020-Jan-27 17:05 243 3 gusting 5 8.9
2020-Jan-27 17:00 278 3 gusting 8 8.3
2020-Jan-27 16:55 250 4 gusting 6 8.3
2020-Jan-27 16:50 279 4 gusting 6 8.9
2020-Jan-27 16:45 224 2 gusting 5 8.9
2020-Jan-27 16:40 219 2 gusting 8 8.3
2020-Jan-27 16:35 224 4 gusting 8 8.9
2020-Jan-27 16:30 255 2 gusting 7 9.4
2020-Jan-27 16:25 9.4
2020-Jan-27 16:20 226 4 gusting 7 10.0
2020-Jan-27 16:15 034 1 gusting 7 10.6
2020-Jan-27 16:10 302 2 gusting 4 10.6
2020-Jan-27 16:05 314 1 gusting 7 10.6
2020-Jan-27 16:00 223 2 gusting 7 10.0
2020-Jan-27 15:55 290 2 gusting 6 10.0
2020-Jan-27 15:50 235 0 gusting 5 9.4
2020-Jan-27 15:45 258 2 gusting 4 9.4
2020-Jan-27 15:40 266 0 gusting 3 8.9
2020-Jan-27 15:35 238 0 gusting 3 8.3
2020-Jan-27 15:30 238 1 gusting 3 7.8
2020-Jan-27 15:25 252 1 gusting 5 8.3
2020-Jan-27 15:20 269 3 gusting 5 7.8
2020-Jan-27 15:15 221 0 gusting 4 6.7
2020-Jan-27 15:10 230 1 gusting 4 6.1
2020-Jan-27 15:05 226 2 gusting 6 6.1
2020-Jan-27 15:00 228 2 gusting 6 5.6
2020-Jan-27 14:55 226 3 gusting 5 5.0
2020-Jan-27 14:50 209 2 gusting 5 5.0
2020-Jan-27 14:45 252 2 gusting 5 5.0
2020-Jan-27 14:39 227 1 gusting 4 4.4
2020-Jan-27 14:35 227 1 gusting 5 4.4
2020-Jan-27 14:30 197 3 gusting 5 4.4
2020-Jan-27 14:24 231 3 gusting 4 3.9
2020-Jan-27 14:19 262 1 gusting 3 3.9
2020-Jan-27 14:14 265 2 gusting 3 3.3
2020-Jan-27 14:09 213 2 gusting 3 3.3
2020-Jan-27 14:04 241 1 gusting 2 3.3
2020-Jan-27 13:59 241 0 gusting 2 3.3
2020-Jan-27 13:54 241 0 gusting 2 3.3
2020-Jan-27 13:49 241 1 gusting 2 2.8
2020-Jan-27 13:44 241 0 gusting 1 2.8
2020-Jan-27 13:39 241 0 gusting 3 2.8
2020-Jan-27 13:34 241 0 gusting 3 2.8
2020-Jan-27 13:29 240 1 gusting 3 2.8
2020-Jan-27 13:24 243 1 gusting 3 2.2
2020-Jan-27 13:19 243 1 gusting 3 2.2
2020-Jan-27 13:14 219 0 gusting 1 2.2
2020-Jan-27 13:09 219 0 gusting 1 2.2
2020-Jan-27 13:04 219 2.2
2020-Jan-27 12:59 219 1.7
2020-Jan-27 12:54 219 0 gusting 4 1.7
2020-Jan-27 12:49 223 2 gusting 4 1.7
2020-Jan-27 12:44 254 2 gusting 4 1.7
2020-Jan-27 12:39 281 2 gusting 3 2.2
2020-Jan-27 12:34 268 2 gusting 3 2.2
2020-Jan-27 12:29 268 2 gusting 3 2.2
2020-Jan-27 12:24 233 1 gusting 3 2.2
2020-Jan-27 12:19 233 1 gusting 2 1.7
2020-Jan-27 12:14 234 1 gusting 4 2.2
2020-Jan-27 12:09 234 2 gusting 4 2.2
2020-Jan-27 12:04 228 1 gusting 4 2.2
2020-Jan-27 11:59 221 2 gusting 4 1.7
2020-Jan-27 11:54 269 1 gusting 3 1.7
2020-Jan-27 11:49 268 1 gusting 4 1.7
2020-Jan-27 11:44 254 2 gusting 4 1.7
2020-Jan-27 11:39 244 2 gusting 4 1.7
2020-Jan-27 11:34 262 2 gusting 4 1.7
2020-Jan-27 11:29 259 2 gusting 4 1.1
2020-Jan-27 11:24 228 2 gusting 3 1.1
2020-Jan-27 11:19 251 2 gusting 3 1.1
2020-Jan-27 11:14 224 1 gusting 3 1.1
2020-Jan-27 11:09 240 1 gusting 2 1.1
2020-Jan-27 11:04 240 1 gusting 3 1.1
2020-Jan-27 10:59 240 1 gusting 3 1.1
2020-Jan-27 10:54 240 1 gusting 3 1.1
2020-Jan-27 10:49 240 0 gusting 3 1.1
2020-Jan-27 10:44 240 1 gusting 3 1.1
2020-Jan-27 10:39 238 0 gusting 3 1.1
2020-Jan-27 10:34 238 1 gusting 5 1.1
2020-Jan-27 10:29 243 3 gusting 5 1.1
2020-Jan-27 10:24 238 1 gusting 4 0.6
2020-Jan-27 10:19 228 1 gusting 2 0.6
2020-Jan-27 10:14 207 1 gusting 2 1.1
2020-Jan-27 10:09 207 0 gusting 1 1.1
2020-Jan-27 10:04 207 1 gusting 1 1.1
2020-Jan-27 09:59 207 0 gusting 2 1.1
2020-Jan-27 09:54 207 0 gusting 1 0.6
2020-Jan-27 09:49 207 0 gusting 2 0.6
2020-Jan-27 09:44 207 0 gusting 2 0.6
2020-Jan-27 09:39 226 1 gusting 2 0.6
2020-Jan-27 09:34 226 0 gusting 1 0.6
2020-Jan-27 09:29 226 0 gusting 1 0.6
2020-Jan-27 09:24 226 0 gusting 1 0.6
2020-Jan-27 09:19 226 0 gusting 1 0.6
2020-Jan-27 09:14 226 0 gusting 1 1.1
2020-Jan-27 09:09 226 0 gusting 1 1.1
2020-Jan-27 09:04 226 0 gusting 1 1.1
2020-Jan-27 08:59 226 0 gusting 1 1.1
2020-Jan-27 08:54 226 0 gusting 1 1.1
2020-Jan-27 08:49 226 0 gusting 1 1.1
2020-Jan-27 08:44 226 0 gusting 2 1.1
2020-Jan-27 08:39 226 0 gusting 1 1.1
2020-Jan-27 08:34 226 0 gusting 1 1.1
2020-Jan-27 08:29 226 0 gusting 1 1.1
2020-Jan-27 08:24 226 0 gusting 1 1.1
2020-Jan-27 08:19 226 0 gusting 1 1.1
2020-Jan-27 08:14 226 0 gusting 1 1.7
2020-Jan-27 08:09 226 0 gusting 1 1.7
2020-Jan-27 08:04 226 0 gusting 0 1.7
2020-Jan-27 07:59 226 1.7
2020-Jan-27 07:54 226 0 gusting 2 1.7
2020-Jan-27 07:49 226 0 gusting 2 1.7
2020-Jan-27 07:44 226 1 gusting 2 1.7
2020-Jan-27 07:39 226 1 gusting 2 2.2
2020-Jan-27 07:34 224 1 gusting 2 2.2
2020-Jan-27 07:29 226 0 gusting 2 2.2
2020-Jan-27 07:24 224 0 gusting 2 2.2
2020-Jan-27 07:19 224 1 gusting 1 2.2
2020-Jan-27 07:14 224 0 gusting 2 2.2
2020-Jan-27 07:09 224 1 gusting 2 2.2
2020-Jan-27 07:04 224 0 gusting 1 2.2
2020-Jan-27 06:59 224 0 gusting 3 2.2
2020-Jan-27 06:54 285 0 gusting 2 2.2
2020-Jan-27 06:49 285 1 gusting 2 2.2
2020-Jan-27 06:44 285 1 gusting 2 2.2
2020-Jan-27 06:39 285 0 gusting 2 2.2
2020-Jan-27 06:34 285 1 gusting 2 1.7
2020-Jan-27 06:29 337 0 gusting 1 1.7
2020-Jan-27 06:24 337 0 gusting 1 1.1
2020-Jan-27 06:19 337 0 gusting 2 1.1
2020-Jan-27 06:14 337 1.1
2020-Jan-27 06:08 337 1.1
2020-Jan-27 06:03 337 1.1
2020-Jan-27 05:58 337 1.1
2020-Jan-27 05:53 337 1.1
2020-Jan-27 05:48 337 1.1
2020-Jan-27 05:43 337 1.1
2020-Jan-27 05:38 337 0.6
2020-Jan-27 05:33 337 0.6
2020-Jan-27 05:28 337 0.6
2020-Jan-27 05:23 337 0.6
2020-Jan-27 05:18 337 0.6
2020-Jan-27 05:13 337 0.6
2020-Jan-27 05:08 337 0.6
2020-Jan-27 05:03 337 0.6
2020-Jan-27 04:58 337 0.6
2020-Jan-27 04:53 337 0.6
2020-Jan-27 04:48 337 0.6
2020-Jan-27 04:43 337 0.6
2020-Jan-27 04:38 337 0 gusting 0 0.6
2020-Jan-27 04:33 337 0 gusting 0 0.6
2020-Jan-27 04:28 337 1.1
2020-Jan-27 04:23 337 1.1
2020-Jan-27 04:18 337 0 gusting 1 1.1
2020-Jan-27 04:13 337 0 gusting 0 1.7
2020-Jan-27 04:08 337 0 gusting 1 1.7
2020-Jan-27 04:03 337 0 gusting 1 1.7
2020-Jan-27 03:58 337 2.2
2020-Jan-27 03:53 337 2.2
2020-Jan-27 03:48 337 2.8
2020-Jan-27 03:43 337 2.8
2020-Jan-27 03:38 337 2.8
2020-Jan-27 03:33 337 2.8
2020-Jan-27 03:28 337 2.8
2020-Jan-27 03:23 337 2.8
2020-Jan-27 03:18 337 0 gusting 1 3.3
2020-Jan-27 03:13 337 0 gusting 1 3.3
2020-Jan-27 03:08 337 0 gusting 1 3.9
2020-Jan-27 03:03 337 3.9
2020-Jan-27 02:58 337 3.9
2020-Jan-27 02:53 337 3.9
2020-Jan-27 02:48 337 4.4
2020-Jan-27 02:43 337 4.4
2020-Jan-27 02:38 337 4.4
2020-Jan-27 02:33 337 4.4
2020-Jan-27 02:28 337 4.4
2020-Jan-27 02:23 337 0 gusting 2 4.4
2020-Jan-27 02:18 338 0 gusting 2 4.4
2020-Jan-27 02:13 341 0 gusting 2 4.4
2020-Jan-27 02:08 341 0 gusting 2 4.4
2020-Jan-27 02:03 333 0 gusting 3 5.0
2020-Jan-27 01:58 327 1 gusting 3 5.0
2020-Jan-27 01:53 331 0 gusting 5 5.0
2020-Jan-27 01:48 312 2 gusting 5 5.0
2020-Jan-27 01:43 340 0 gusting 6 5.0
2020-Jan-27 01:38 303 3 gusting 6 5.0
2020-Jan-27 01:33 274 5.0
2020-Jan-27 01:28 288 1 gusting 4 5.0
2020-Jan-27 01:23 258 1 gusting 4 5.0
2020-Jan-27 01:18 298 1 gusting 8 5.0
2020-Jan-27 01:13 329 2 gusting 8 5.0
2020-Jan-27 01:08 312 2 gusting 8 5.0
2020-Jan-27 01:03 290 4 gusting 8 5.0
2020-Jan-27 00:58 275 2 gusting 6 5.0
2020-Jan-27 00:53 353 2 gusting 6 5.0
2020-Jan-27 00:48 305 2 gusting 7 5.0
2020-Jan-27 00:43 317 1 gusting 12 5.0
2020-Jan-27 00:38 351 4 gusting 12 5.0
2020-Jan-27 00:33 231 4 gusting 9 5.0
2020-Jan-27 00:28 265 3 gusting 9 5.6
2020-Jan-27 00:23 300 3 gusting 7 5.6
2020-Jan-27 00:18 343 3 gusting 7 5.6
2020-Jan-27 00:13 336 2 gusting 7 5.6
2020-Jan-27 00:08 275 2 gusting 7 5.6
2020-Jan-27 00:03 341 1 gusting 4 5.6
2020-Jan-26 23:58 326 1 gusting 4 5.6
2020-Jan-26 23:53 316 0 gusting 5 5.6
2020-Jan-26 23:48 333 2 gusting 5 5.6
2020-Jan-26 23:43 343 2 gusting 5 5.6
2020-Jan-26 23:38 329 2 gusting 7 5.6
2020-Jan-26 23:33 353 1 gusting 5 5.6
2020-Jan-26 23:28 300 1 gusting 7 5.6
2020-Jan-26 23:23 323 1 gusting 7 5.6
2020-Jan-26 23:18 292 1 gusting 8 5.6
2020-Jan-26 23:13 345 3 gusting 11 5.6
2020-Jan-26 23:08 326 3 gusting 11 6.1
2020-Jan-26 23:03 351 3 gusting 5 6.1